Starlink 30570

operational
NORAD ID: 58095 Int'l Des: 2023-160 Owner: SPXS Country: US Constellation: starlink
LEOCIRCULAR

Über Starlink 30570

Beschreibung wird geladen...

Live-Position

3D-Globus wird geladen...

Nächste Überflüge

Höhenverlauf

Altitude vs Time

uPlot chart will show altitude changes over time

Zweizeiliger Elementsatz

1 58095U 23160W 25260.45678976 -.00000163 00000-0 30140-5 0 9990
2 58095 43.0027 301.1700 0001615 267.0831 92.9826 15.02535569106865
Epoch: 17. Sept. 2025 • Age: 24 hours

Aktueller Status

Höhe 561.2 km
Geschwindigkeit 7.59 km/s
Subsatellitenpunkt 33.35°N, 98.42°W
Startdatum 18. Okt. 2023
Alter 1.9 years
Typ internet

Technische Details

Klassifizierung Payload
Masse 730.00 kg
Trockenmasse 700.00 kg
Gesamtmasse 730.00 kg
Länge 0.30 m
Durchmesser 4.10 m
Spannweite 29.00 m
Form Box + pan
Hersteller SPXS
Bus-Typ Starlink V2M
Phasenstatus In Orbit
Besitzer/Staat SPXS/US

Große Konstellationen

Loading constellations...